Location: Poughquag
(41.6090°N, 73.6820°W)
Time: 08:49:02
(UTC-05:00)

SR - Pass Details

Date: 15 December 2023
Orbit: 574 x 868 km, 66.7° (Epoch: 25 February)

Event Time Altitude Azimuth Distance (km) Brightness Sun altitude
Rises 16:49:31 0° 334° (NNW) 3,444 ? -4.8°
Reaches altitude 10° 16:52:13 10° 342° (NNW) 2,483 ? -5.2°
Maximum altitude 16:57:36 40° 51° (NE) 1,200 ? -6.1°
Drops below altitude 10° 17:02:39 10° 120° (ESE) 2,327 ? -7.0°
Sets 17:05:06 0° 128° (SE) 3,203 ? -7.4°
